Location: Unspecified
(0.0000°N, 0.0000°E)
Time: 18:15:10
(UTC+00:00)

Courier 1B Rocket - Pass Details

Date: 10 October 2020
Orbit: 921 x 1202 km, 28.2° (Epoch: 27 October)

Event Time Altitude Azimuth Distance (km) Brightness Sun altitude
Rises 07:15:12 0° 326° (NNW) 3,640 7.6 21.9°
Reaches altitude 10° 07:19:02 10° 348° (NNW) 2,652 7.2 22.9°
Maximum altitude 07:22:46 16° 24° (NNE) 2,221 7.2 23.8°
Drops below altitude 10° 07:26:26 10° 60° (ENE) 2,605 8.2 24.7°
Sets 07:30:08 0° 82° (E) 3,544 9.1 25.6°
